EW7948 Weather Reports


Display with metric or nautical units.
time (UTC)temp
F
wind
direction
speed
MPH
gust
MPH
rain 1hr
in
rain 24hr
in
rain mn
in
humidity
%
barometer
mb
20260905204510 93 200 7.0 14.0 0.00 0.00 0.00 12 1005.3
20260905203014 92 202 6.0 15.0 0.00 0.00 0.00 13 1005.4
20260905201523 92 171 8.0 16.0 0.00 0.00 0.00 13 1005.5
20260905200054 92 156 8.0 15.0 0.00 0.00 0.00 14 1005.9
20260905194548 92 208 3.0 6.0 0.00 0.00 0.00 14 1006.0
20260905193004 91 237 5.0 12.0 0.00 0.00 0.00 16 1006.2
20260905191518 90 217 5.0 19.0 0.00 0.00 0.00 15 1006.4
20260905190029 90 279 5.0 14.0 0.00 0.00 0.00 15 1006.5
20260905184611 90 200 6.0 13.0 0.00 0.00 0.00 18 1006.7
20260905183009 89 165 5.0 16.0 0.00 0.00 0.00 17 1006.9
20260905181523 88 221 4.0 16.0 0.00 0.00 0.00 18 1006.8
20260905180032 88 250 8.0 20.0 0.00 0.00 0.00 21 1006.8
20260905174531 88 213 7.0 12.0 0.00 0.00 0.00 23 1006.9
20260905173026 88 263 4.0 10.0 0.00 0.00 0.00 26 1007.0
20260905171513 87 145 1.0 9.0 0.00 0.00 0.00 27 1007.1
20260905170013 86 112 1.0 6.0 0.00 0.00 0.00 27 1007.1
20260905164558 85 111 2.0 8.0 0.00 0.00 0.00 28 1007.2
20260905163107 83 161 3.0 7.0 0.00 0.00 0.00 31 1007.3
20260905161558 80 166 1.0 5.0 0.00 0.00 0.00 34 1007.2
20260905160055 77 80 0.0 2.0 0.00 0.00 0.00 38 1007.3
20260905154556 74 72 0.0 1.0 0.00 0.00 0.00 42 1007.2
20260905153046 72 72 2.0 5.0 0.00 0.00 0.00 48 1007.1
20260905151550 71 74 1.0 3.0 0.00 0.00 0.00 49 1007.1
20260905150052 70 74 0.0 1.0 0.00 0.00 0.00 52 1007.1
20260905144547 69 74 0.0 2.0 0.00 0.00 0.00 54 1007.1
20260905143049 70 83 5.0 7.0 0.00 0.00 0.00 49 1006.8
20260905141532 70 209 3.0 5.0 0.00 0.00 0.00 43 1006.7
20260905140031 68 212 4.0 6.0 0.00 0.00 0.00 47 1006.3
20260905134529 66 219 3.0 4.0 0.00 0.00 0.00 50 1006.2
20260905133026 65 236 1.0 3.0 0.00 0.00 0.00 49 1006.1
20260905131538 64 238 3.0 4.0 0.00 0.00 0.00 52 1005.9
20260905130025 63 268 0.0 1.0 0.00 0.00 0.00 58 1005.7
20260905124524 63 268 0.0 1.0 0.00 0.00 0.00 61 1005.6
20260905123019 63 268 1.0 3.0 0.00 0.00 0.00 60 1005.4
20260905121518 63 268 0.0 2.0 0.00 0.00 0.00 60 1005.2
20260905120017 63 268 2.0 3.0 0.00 0.00 0.00 61 1005.4
20260905114522 64 268 0.0 6.0 0.00 0.00 0.00 60 1005.2
20260905113015 65 53 0.0 2.0 0.00 0.00 0.00 54 1005.3
20260905111510 65 53 1.0 3.0 0.00 0.00 0.00 54 1005.2
20260905110009 65 53 0.0 2.0 0.00 0.00 0.00 54 1005.2
20260905104512 66 53 0.0 1.0 0.00 0.00 0.00 52 1005.1
20260905103010 67 53 0.0 2.0 0.00 0.00 0.00 50 1005.1
20260905101503 68 53 0.0 3.0 0.00 0.00 0.00 45 1005.0
20260905100109 67 51 1.0 3.0 0.00 0.00 0.00 45 1004.8
20260905094559 68 50 1.0 3.0 0.00 0.00 0.00 45 1004.7
20260905093100 68 47 0.0 1.0 0.00 0.00 0.00 47 1004.5
20260905091604 69 47 0.0 0.0 0.00 0.00 0.00 51 1004.4
20260905090055 70 47 1.0 5.0 0.00 0.00 0.00 43 1004.4
20260905084553 71 350 2.0 5.0 0.00 0.00 0.00 44 1004.3
20260905083050 72 103 0.0 3.0 0.00 0.00 0.00 38 1004.0
20260905081552 72 103 3.0 6.0 0.00 0.00 0.00 36 1004.1
20260905080053 70 65 0.0 2.0 0.00 0.00 0.00 42 1004.0
20260905074545 70 64 0.0 4.0 0.00 0.00 0.00 46 1003.9
20260905073042 69 49 0.0 0.0 0.00 0.00 0.00 48 1003.9
20260905071541 68 49 0.0 0.0 0.00 0.00 0.00 49 1003.8
20260905070039 68 50 0.0 0.0 0.00 0.00 0.00 44 1003.3
20260905064545 69 49 0.0 2.0 0.00 0.00 0.00 46 1003.4
20260905063038 69 34 0.0 1.0 0.00 0.00 0.00 45 1003.2
20260905061532 69 34 0.0 0.0 0.00 0.00 0.00 48 1003.1
20260905060035 70 34 0.0 0.0 0.00 0.00 0.00 48 1003.0
20260905054510 71 34 0.0 4.0 0.00 0.00 0.00 44 1003.0
20260905053012 71 34 3.0 5.0 0.00 0.00 0.00 42 1003.0
20260905051503 73 360 4.0 5.0 0.00 0.00 0.00 42 1002.9
20260905050004 76 168 0.0 2.0 0.00 0.00 0.00 38 1003.0
20260905044503 78 168 0.0 1.0 0.00 0.00 0.00 33 1003.0
20260905043003 78 168 0.0 0.0 0.00 0.00 0.00 29 1003.0
20260905041502 79 168 0.0 0.0 0.00 0.00 0.00 28 1003.0
20260905040101 80 168 0.0 0.0 0.00 0.00 0.00 27 1003.0
20260905040001 80 168 0.0 0.0 0.00 0.00 0.00 27 1003.0
20260905034606 81 168 0.0 0.0 0.00 0.00 0.00 27 1003.0
20260905033103 82 168 0.0 0.0 0.00 0.00 0.00 25 1002.9
20260905031559 82 168 0.0 2.0 0.00 0.00 0.00 25 1002.8
20260905030121 83 164 1.0 3.0 0.00 0.00 0.00 25 1002.5
20260905024559 83 164 1.0 5.0 0.00 0.00 0.00 24 1002.4
20260905023058 84 176 2.0 6.0 0.00 0.00 0.00 23 1002.3
20260905021557 85 176 1.0 7.0 0.00 0.00 0.00 22 1002.2
20260905020105 86 171 2.0 11.0 0.00 0.00 0.00 21 1002.1
20260905014556 87 194 6.0 12.0 0.00 0.00 0.00 20 1002.1
20260905013054 88 183 5.0 13.0 0.00 0.00 0.00 20 1002.1
20260905011554 88 209 6.0 15.0 0.00 0.00 0.00 19 1002.1
20260905010101 89 200 4.0 14.0 0.00 0.00 0.00 19 1002.1
20260905004609 90 204 3.0 10.0 0.00 0.00 0.00 19 1002.0
20260905003052 90 163 6.0 12.0 0.00 0.00 0.00 19 1002.1
20260905001551 90 230 4.0 13.0 0.00 0.00 0.00 19 1002.0
20260905000051 91 179 6.0 14.0 0.00 0.00 0.00 19 1002.2
20260904234550 91 224 5.0 16.0 0.00 0.00 0.00 17 1002.2
20260904233053 91 225 9.0 15.0 0.00 0.00 0.00 17 1002.2
20260904231548 91 205 8.0 15.0 0.00 0.00 0.00 17 1002.3
20260904230149 91 213 9.0 15.0 0.00 0.00 0.00 17 1002.3
20260904224550 92 157 6.0 20.0 0.00 0.00 0.00 18 1002.4
20260904223046 92 198 7.0 19.0 0.00 0.00 0.00 18 1002.5
20260904221549 92 211 7.0 17.0 0.00 0.00 0.00 17 1002.5
20260904220046 91 193 11.0 22.0 0.00 0.00 0.00 17 1002.6
20260904214544 92 158 8.0 19.0 0.00 0.00 0.00 16 1002.8
20260904213044 91 182 10.0 20.0 0.00 0.00 0.00 16 1003.0
20260904211542 92 186 10.0 18.0 0.00 0.00 0.00 16 1003.0
20260904210049 91 226 10.0 25.0 0.00 0.00 0.00 18 1003.2